Lapse_Rate
7.4 7.3 7.4 7.4 7.2 6.9 6.6 6.4 6.2 6.2 6.3 6.3 6.4 6.5 6.4 6.2 6.0 5.9 5.8 5.8 5.8 5.7 5.5 5.2 5.2 5.4 5.7 5.9 5.8 5.9 6.0 6.1 6.1 6.1 6.0 6.1 6.3 6.6 6.5 5.9 5.8 5.5 5.4
7.7 7.5 7.5 7.3 7.0 6.7 6.5 6.2 6.2 6.2 6.1 6.2 6.2 6.4 6.4 6.3 6.0 6.0 6.1 5.9 5.7 5.5 5.4 5.2 5.0 5.4 5.7 5.7 5.4 5.4 5.5 5.8 5.7 5.8 6.1 6.4 6.9 7.1 7.7 7.2 6.4 6.0 5.6
7.8 7.7 7.4 7.0 6.7 6.7 6.3 6.1 6.1 6.0 6.1 6.2 6.4 6.5 6.4 6.5 6.3 6.0 5.9 5.8 5.7 5.6 5.3 5.3 5.4 5.2 5.4 5.4 5.4 6.0 6.2 6.3 5.8 5.3 5.2 5.5 6.4 7.5 7.0 6.8 6.7 6.4 6.2
7.8 7.6 7.0 6.7 6.5 6.4 6.1 6.1 6.0 6.1 6.2 6.3 6.7 6.8 6.8 6.8 6.7 6.5 6.2 6.1 5.8 5.6 5.6 5.4 5.2 5.2 5.3 5.9 6.1 6.2 6.4 6.2 5.8 5.5 5.0 4.9 5.2 5.8 6.7 5.4 5.1 5.4 6.4
7.8 7.7 7.3 6.6 6.4 6.3 6.2 6.1 6.2 6.4 6.5 6.9 7.0 7.0 7.0 6.9 6.4 6.2 6.1 5.9 5.8 5.7 5.6 5.6 5.8 5.9 6.0 6.0 6.1 6.0 5.9 6.0 5.8 5.7 5.6 5.3 4.9 4.8 5.1 5.1 5.0 5.0 5.0
7.9 7.7 7.2 6.5 6.5 6.4 6.3 6.3 6.5 6.6 6.9 6.9 6.8 6.9 6.8 6.5 6.2 6.3 6.1 5.9 5.9 6.0 6.1 6.4 6.6 6.5 6.4 6.2 6.2 5.6 5.7 5.8 5.6 5.5 5.2 5.2 5.0 4.4 4.0 5.6 4.5 4.9 5.3
7.9 7.8 7.3 7.0 6.7 6.5 6.3 6.5 6.8 6.8 6.7 6.8 6.8 6.9 6.6 6.3 6.3 6.1 6.0 6.1 6.2 6.4 6.8 7.0 6.8 6.7 6.6 6.1 5.9 5.8 5.7 5.6 5.6 5.7 5.5 5.5 5.2 4.9 4.6 5.0 5.4 5.0 5.5
7.8 7.6 7.4 6.7 6.7 6.8 6.5 6.8 7.0 6.6 6.8 6.9 6.9 6.6 6.4 6.3 6.2 6.1 6.0 6.2 6.5 6.9 7.2 7.1 6.9 6.9 7.0 6.5 6.1 5.9 5.7 5.7 5.8 5.8 5.6 5.5 5.4 5.2 5.0 4.8 5.4 5.2 5.6
7.7 7.5 7.4 6.6 6.8 7.0 7.0 7.1 6.9 6.8 6.9 7.0 6.5 6.5 6.5 6.4 6.3 6.2 6.1 6.3 6.7 7.0 7.2 7.1 7.3 7.4 7.1 7.2 6.9 6.4 6.1 5.8 5.8 5.9 5.6 5.4 5.2 5.2 5.0 4.8 4.8 5.0 5.3
7.7 7.4 6.7 6.6 7.1 6.9 7.2 7.3 6.9 7.0 7.0 6.7 6.6 6.6 6.5 6.4 6.4 6.3 6.2 6.5 6.9 7.1 7.1 7.2 7.6 7.5 7.3 7.2 7.2 7.0 6.5 6.0 6.1 6.1 5.9 5.5 5.3 5.5 5.3 4.8 4.4 4.6 4.8
7.4 7.2 6.7 7.1 7.0 7.2 7.3 7.2 7.1 6.9 6.9 6.9 7.0 6.6 6.5 6.6 6.5 6.4 6.4 6.7 7.1 7.2 7.2 7.3 7.5 7.4 7.2 7.2 7.1 7.2 7.2 6.6 6.5 6.4 6.1 5.8 5.5 5.7 5.5 4.9 4.4 4.4 4.7
7.1 6.9 7.1 7.5 7.6 7.5 7.4 7.3 7.0 7.0 7.1 7.3 6.8 6.6 6.8 6.7 6.7 6.6 6.6 6.8 7.2 7.2 7.4 7.5 7.5 7.4 7.3 7.3 7.1 7.1 7.1 7.2 6.6 6.6 6.3 6.1 5.8 5.7 5.5 4.8 4.4 4.6 4.7
7.1 7.1 7.3 7.8 7.8 7.6 7.4 7.2 7.2 7.2 7.3 7.0 6.8 6.8 6.8 6.8 6.8 6.7 6.5 6.9 7.2 7.3 7.5 7.6 7.5 7.4 7.3 7.3 7.2 7.2 7.3 7.0 7.1 6.6 6.4 6.4 6.0 5.8 5.6 5.1 4.8 4.9 5.2
7.2 7.5 7.8 7.6 7.7 7.7 7.4 7.3 7.3 7.3 7.2 7.0 7.0 7.0 7.0 6.8 6.6 6.5 6.5 7.0 7.2 7.3 7.6 7.6 7.4 7.4 7.2 7.2 7.2 7.2 7.3 7.2 7.0 7.1 6.6 6.6 6.5 6.1 5.9 5.7 5.5 5.5 5.4
7.5 7.7 7.6 7.4 7.6 7.7 7.5 7.4 7.3 7.3 7.0 7.0 7.1 7.2 6.9 6.6 6.5 6.3 6.7 7.0 7.1 7.3 7.4 7.4 7.3 7.3 7.2 7.0 7.1 7.1 7.2 7.1 7.0 7.0 7.1 6.8 6.5 6.5 6.4 5.8 5.7 5.7 5.7
7.6 7.6 7.6 7.6 7.8 7.7 7.6 7.4 7.3 7.1 7.1 7.1 7.2 7.1 6.8 6.5 6.3 6.4 6.8 6.9 7.1 7.2 7.3 7.3 7.3 7.3 7.3 7.1 7.2 7.0 7.0 7.1 6.8 6.7 6.8 6.9 7.2 6.9 6.5 6.4 6.5 6.2 6.0
7.8 7.7 7.7 7.5 7.7 7.7 7.5 7.4 7.3 7.3 7.1 7.2 7.2 7.0 6.7 6.5 6.3 6.6 6.8 6.9 7.0 7.0 7.1 7.3 7.3 7.4 7.3 7.1 7.1 7.2 7.0 7.0 6.9 6.7 6.6 6.6 6.6 6.9 7.0 6.9 6.6 6.1 6.4
7.8 7.8 7.7 7.7 7.7 7.6 7.6 7.6 7.4 7.2 7.2 7.2 7.1 6.9 6.6 6.5 6.3 6.6 6.8 6.8 6.8 6.9 6.9 7.3 7.3 7.3 7.2 7.0 7.0 7.1 7.1 6.9 6.9 6.7 6.6 6.4 6.3 6.4 6.5 6.4 6.4 6.4 6.4
7.8 7.7 7.7 7.7 7.6 7.7 7.6 7.5 7.3 7.1 7.1 7.1 7.0 6.9 6.6 6.4 6.5 6.6 6.7 6.7 6.7 6.7 6.8 6.9 7.2 7.2 7.0 7.0 6.9 6.9 6.9 6.9 6.8 6.6 6.7 6.6 6.4 6.3 6.4 6.2 6.1 6.1 6.1
7.7 7.7 7.6 7.6 7.6 7.5 7.4 7.3 7.0 7.0 7.0 7.1 6.9 6.7 6.7 6.5 6.4 6.6 6.7 6.6 6.6 6.6 6.7 6.7 6.9 7.0 7.0 6.9 6.9 6.8 6.7 6.8 6.8 6.6 6.5 6.4 6.4 6.4 6.2 6.2 6.2 6.2 6.2
7.5 7.5 7.5 7.5 7.7 7.6 7.5 7.2 6.9 6.8 7.0 7.0 6.7 6.8 6.7 6.5 6.5 6.6 6.6 6.4 6.6 6.6 6.6 6.6 6.8 6.8 6.8 6.7 6.7 6.7 6.7 6.6 6.6 6.5 6.4 6.3 6.3 6.1 6.2 6.1 6.0 6.0 6.1
7.4 7.4 7.5 7.6 7.5 7.4 7.3 6.9 6.7 6.8 7.0 6.8 6.8 6.8 6.8 6.7 6.6 6.5 6.5 6.4 6.4 6.4 6.5 6.5 6.5 6.7 6.5 6.6 6.6 6.5 6.6 6.5 6.4 6.3 6.3 6.3 6.2 6.2 6.1 6.0 5.9 5.8 5.7
7.4 7.5 7.6 7.5 7.3 7.2 7.0 6.7 6.7 6.8 6.8 6.7 6.7 6.8 6.8 6.6 6.5 6.5 6.4 6.3 6.2 6.3 6.4 6.4 6.3 6.2 6.2 6.4 6.6 6.6 6.5 6.4 6.4 6.3 6.2 6.1 6.0 6.0 6.0 5.9 5.8 5.7 5.6
7.4 7.5 7.4 7.3 7.3 7.1 6.8 6.6 6.8 6.7 6.7 6.7 6.7 6.6 6.4 6.3 6.4 6.4 6.3 6.4 6.3 6.2 6.4 6.5 6.5 6.4 6.2 6.1 6.3 6.4 6.4 6.4 6.4 6.3 6.3 6.1 6.0 6.0 5.9 5.8 5.7 5.6 5.5
7.4 7.5 7.4 7.2 7.1 7.0 6.8 6.7 6.7 6.7 6.6 6.5 6.4 6.2 6.1 6.2 6.2 6.3 6.4 6.5 6.6 6.6 6.5 6.5 6.7 6.5 6.5 6.4 6.3 6.4 6.4 6.4 6.4 6.4 6.2 6.1 6.1 6.0 5.8 5.8 5.7 5.6 5.4
7.4 7.2 7.3 7.1 7.0 7.0 6.9 6.7 6.7 6.6 6.5 6.4 6.3 6.1 6.0 6.0 6.1 6.3 6.5 6.4 6.4 6.4 6.5 6.6 6.7 6.7 6.6 6.5 6.3 6.3 6.3 6.3 6.2 6.2 6.2 6.1 6.0 5.9 5.7 5.5 5.5 5.3 5.1
Wind_Speed
8 8 8 7 7 7 7 6 7 5 3 2 2 1 3 3 4 10 12 11 12 12 10 10 9 12 7 8 9 8 10 8 9 10 11 9 14 13 10 10 9 12 11
10 9 8 7 7 7 7 6 6 6 3 3 2 3 2 3 4 7 9 10 11 10 13 11 8 11 8 10 10 10 8 7 8 7 10 7 7 9 9 6 8 10 8
17 14 12 9 8 8 8 7 6 6 4 5 3 3 4 4 3 2 3 8 11 12 12 12 11 10 9 8 9 9 12 8 8 9 5 5 4 12 6 10 8 5 4
16 14 14 10 10 8 7 7 7 6 6 5 5 5 3 2 1 2 2 6 11 11 14 14 13 12 10 9 9 9 8 9 9 8 6 9 9 3 7 5 9 11 10
20 18 17 13 8 8 8 7 7 7 6 6 5 5 5 2 1 2 5 4 7 11 14 15 15 11 9 9 9 10 9 7 8 7 7 7 7 8 5 9 9 9 6
19 17 13 11 8 7 7 7 8 6 6 5 6 7 6 4 3 3 3 3 4 6 12 14 13 12 10 9 8 9 10 9 8 8 7 7 4 5 4 4 7 6 4
20 17 18 14 11 10 8 7 8 7 6 6 7 6 6 4 4 3 3 5 5 3 7 11 9 8 11 12 10 9 10 10 9 10 8 7 6 6 6 6 7 5 5
17 19 19 15 14 12 10 8 8 7 6 6 7 5 5 3 3 3 3 3 3 4 9 9 10 10 12 11 11 6 7 11 9 12 10 8 6 6 5 5 5 5 3
17 18 16 15 14 12 11 9 9 7 6 6 6 5 4 4 3 4 3 3 4 5 8 10 8 10 11 12 9 6 8 9 10 11 10 8 7 5 5 5 6 5 2
15 15 14 14 12 11 8 7 7 8 6 6 6 4 4 4 4 3 4 4 4 6 6 7 8 8 9 11 9 6 9 10 9 9 11 10 7 7 5 5 6 5 6
15 14 13 12 11 11 10 8 8 8 7 6 5 5 4 4 4 4 3 3 4 6 5 6 6 6 7 9 8 9 10 11 12 13 12 13 11 7 7 6 5 6 3
11 10 10 11 11 10 9 8 8 7 7 7 6 5 4 4 3 3 3 5 4 6 5 6 6 7 8 8 9 9 9 11 13 14 14 14 10 12 10 7 9 7 8
10 10 11 11 11 10 8 8 6 7 7 7 6 5 4 4 3 4 4 4 2 3 5 5 6 7 8 8 9 9 9 10 11 12 14 15 16 13 10 10 9 8 7
11 9 9 9 9 9 9 7 6 6 6 7 6 6 5 5 3 3 4 3 4 4 4 4 4 4 6 9 9 10 9 9 10 11 13 14 15 16 14 12 11 9 9
10 12 12 11 12 11 9 8 7 6 6 7 6 6 4 5 4 4 4 5 6 5 5 6 6 6 8 8 9 9 9 10 10 11 12 13 19 26 25 12 13 12 10
13 12 12 13 15 14 12 12 10 8 7 6 6 5 5 5 4 4 5 6 6 5 5 5 5 6 7 17 18 12 9 11 11 10 11 11 16 16 24 27 30 23 12
15 16 17 15 14 14 14 12 11 10 9 7 5 6 6 5 4 4 5 6 5 3 4 4 5 5 4 15 16 17 6 7 7 10 10 11 11 14 13 19 22 26 28
9 10 11 12 12 13 12 12 11 10 9 8 8 6 6 6 4 5 5 4 3 3 2 3 5 4 4 13 15 16 6 6 7 6 8 9 10 14 13 13 13 14 14
7 8 9 11 12 13 13 13 11 10 10 10 9 10 8 7 5 5 5 3 4 3 2 2 5 5 4 13 12 10 5 6 8 8 9 6 10 20 20 10 10 11 11
7 11 12 12 13 12 14 13 12 11 11 11 10 10 10 9 8 6 5 2 2 3 2 4 3 9 5 11 12 9 4 6 5 7 8 23 16 22 22 10 9 11 8
8 11 11 12 12 13 14 12 11 11 9 10 10 10 10 10 9 8 5 5 5 4 3 5 4 5 6 4 12 13 4 4 5 5 5 7 21 22 23 20 10 9 5
9 7 10 10 11 12 12 11 11 8 9 9 8 8 8 7 8 10 8 7 6 5 3 3 3 3 4 7 10 11 11 11 6 4 5 7 17 20 21 17 21 19 10
8 4 9 10 8 10 11 12 8 11 10 9 8 7 6 5 6 8 8 7 6 4 3 3 2 1 3 4 10 10 12 13 5 5 12 16 17 17 14 19 19 13 7
7 6 10 9 8 6 8 5 11 11 11 10 8 6 6 4 3 3 5 6 6 4 3 3 3 1 1 2 3 4 7 10 9 8 9 11 11 13 10 8 12 9 7
6 7 9 9 9 8 7 8 10 12 11 9 8 8 6 5 4 3 3 5 2 6 5 3 3 3 2 2 7 8 5 4 6 7 4 5 5 5 5 5 6 6 7
7 7 7 8 9 9 9 9 10 12 12 10 8 7 6 5 5 5 4 6 9 10 10 13 6 2 4 13 12 12 10 10 8 4 3 3 3 4 4 4 5 6 7
Wind_Direction
160 152 153 147 136 141 132 133 116 81 105 111 139 95 72 44 40 29 16 10 4 3 3 356 347 352 347 332 322 324 321 320 320 316 315 295 278 272 272 259 256 254 243
157 160 158 158 169 157 143 128 112 109 104 121 107 103 119 81 69 18 11 10 4 2 9 358 354 352 347 343 341 338 322 324 331 316 306 323 315 357 313 250 254 256 255
171 172 172 178 156 164 164 145 134 125 106 95 109 91 70 56 19 342 354 353 353 357 8 0 358 357 352 342 329 329 335 321 323 323 314 325 335 339 321 330 6 294 245
179 174 174 179 172 176 156 138 138 134 100 88 82 84 108 112 351 324 324 343 352 352 8 1 1 359 343 331 340 333 327 316 319 321 302 292 297 311 318 316 329 5 5
177 176 179 176 172 155 156 148 135 104 96 96 110 113 100 96 1 355 0 340 339 360 8 5 3 354 344 347 335 331 342 329 316 321 319 293 280 272 271 294 302 331 345
179 175 164 157 153 147 146 148 131 119 125 121 112 100 104 92 45 13 5 334 354 349 7 6 355 349 347 347 342 338 339 331 330 323 322 311 283 289 306 279 297 306 349
174 163 163 168 162 162 160 150 141 139 136 123 97 92 96 104 76 33 7 354 354 356 359 349 341 342 349 353 347 352 343 339 338 333 327 319 305 271 273 276 288 287 313
172 169 168 168 166 166 165 155 148 139 140 109 97 98 105 104 82 54 31 7 357 347 350 343 344 349 354 352 1 5 352 347 343 340 323 320 315 313 294 259 275 294 271
172 167 163 164 165 166 169 158 145 144 123 121 116 105 115 100 83 58 41 15 5 358 354 340 351 3 359 358 1 359 354 349 342 349 335 334 328 313 310 297 296 234 271
165 160 165 162 162 159 147 140 143 140 138 129 111 124 117 106 93 78 48 34 10 3 347 350 1 9 6 6 1 1 360 356 350 347 345 349 342 334 326 308 287 272 230
173 165 159 159 150 140 146 145 134 144 135 120 120 135 128 108 82 73 54 32 11 9 359 359 3 6 17 10 9 8 8 1 354 356 354 360 355 352 350 343 343 8 346
163 155 146 141 143 143 144 148 150 144 133 127 134 130 122 109 95 85 65 52 20 19 355 4 13 14 26 15 18 12 8 6 1 358 0 6 6 7 5 6 12 19 21
135 139 146 155 151 148 150 150 151 137 136 138 135 127 123 125 118 78 56 49 13 20 10 13 20 20 34 20 23 17 11 12 4 2 6 7 17 17 13 15 20 20 33
161 155 152 154 150 154 152 152 146 141 137 137 135 137 147 140 110 88 72 56 40 37 11 11 14 8 42 36 30 27 15 19 10 8 16 13 23 27 22 24 21 25 40
170 175 169 167 164 157 157 154 147 148 144 135 137 157 148 130 116 98 83 78 57 40 18 44 30 35 50 47 37 32 23 27 20 20 25 29 30 37 42 39 30 32 41
202 185 178 173 174 170 161 163 161 158 148 144 152 147 125 112 110 100 89 75 68 43 34 37 42 21 57 58 53 50 39 34 34 27 27 32 33 33 40 42 52 50 41
194 189 187 179 174 170 162 162 158 152 153 150 150 138 124 113 106 97 91 82 64 36 33 25 36 31 20 61 60 50 31 32 23 38 32 37 35 36 41 42 40 48 53
163 166 169 168 165 154 153 141 147 153 154 154 155 143 134 127 118 105 94 77 71 62 36 22 30 33 48 61 64 54 20 28 24 19 36 36 38 47 46 45 41 34 34
169 164 150 150 148 150 146 143 149 152 157 162 161 162 153 144 144 131 123 99 94 58 46 22 44 39 0 66 66 54 31 22 31 24 63 43 48 52 51 45 49 46 30
132 135 134 139 144 149 147 147 156 162 169 166 168 162 161 162 159 151 145 125 119 114 85 62 25 45 14 75 70 65 62 46 37 31 27 54 56 54 55 51 49 53 17
125 132 143 150 151 149 148 151 156 175 163 158 158 161 167 165 164 158 151 145 134 117 96 78 30 31 16 14 90 81 66 57 54 38 25 48 56 54 56 57 56 55 19
138 139 136 140 147 151 148 153 173 153 149 145 148 157 161 165 160 162 163 166 150 146 119 96 75 22 13 3 89 96 92 82 73 55 36 43 51 55 56 52 53 48 32
142 131 139 135 147 158 158 159 163 152 151 149 154 156 149 144 150 161 167 173 163 150 156 133 111 56 37 21 85 90 92 86 79 72 72 65 59 54 35 51 45 35 34
149 138 136 149 159 160 160 146 151 151 151 154 153 147 145 140 132 139 172 168 167 161 149 149 154 168 91 82 60 61 79 79 71 67 59 58 59 48 38 32 28 29 33
144 158 160 162 165 156 140 143 148 151 155 152 155 158 158 150 136 119 165 165 169 165 159 166 159 150 147 193 136 122 108 104 105 78 55 47 43 43 31 32 30 28 30
153 149 146 149 152 156 148 150 157 159 153 152 158 160 150 150 148 137 117 135 151 158 157 155 155 252 250 174 138 116 113 113 108 65 73 55 45 46 41 32 32 33 35